Location: Round Knob
(37.2473°N, 88.7376°W)
Time: 07:48:18
(UTC+00:00)

Hubble Space Telescope - Pass Details

Date: 19 September 2021
Orbit: 535 x 538 km, 28.5° (Epoch: 17 October)

Event Time Altitude Azimuth Distance (km) Brightness Sun altitude
Rises 01:26:02 0° 254° (WSW) 2,670 5.3 -18.2°
Reaches altitude 10° 01:29:21 10° 226° (SW) 1,779 3.8 -18.8°
Maximum altitude 01:31:16 13° 198° (SSW) 1,597 3.2 -19.2°
Enters shadow 01:32:21 12° 181° (S) 1,657 3.1 -19.4°
